FENGYUN 1C DEB

Satellite information

Favourite Embed

Satellite Type and Status

DEBRISIN ORBIT

Key statistics

Satellite FENGYUN 1C DEB at a glance.

Uptime

9493

Days in orbit

Revolutions

≈ 14.0

Per day

Orbit

SSO

Sun Synchronous Orbit

Inclination

98.9

Latest

Satellite identification and parameters

Extended collection of information and parameters for FENGYUN 1C DEB.

Object identification

Identified? True

Debris? True

Object name: FENGYUN 1C DEB

International designator: 1999-025XY

Object number (NORAD): 30263

Object ID (CCSDS): 30263

Country: PEOPLES REPUBLIC OF CHINA (PRC)

Current information (Y/N): Y

RCS size: SMALL

Orbital parameters

Period: 102.835 minutes

Inclination: 98.8969 deg

SMA: 7270.9 km

Apoapsis: 998.517 km

Periapsis: 787.013 km

RAAN: 246.2116 deg

Eccentricy: 0.0145446

Argument of periapsis: 253.199 deg

Mean anomaly: 260.8895 deg

Mean motion: 14.00298112 rev/day

Mean motion (dot): 0.00002126 rev/day2

B* drag term: 0.0013387 1/REarth

Two-line elements (TLE)

Creation date: May 6, 2025, 3:54 a.m.

Reference frame: TEME

Reference center: EARTH

Epoch: May 5, 2025, 8:13 p.m. UTC

TLE line 0: 0 FENGYUN 1C DEB

TLE line 1: 1 30263U 99025XY 25125.84298361 .00002126 00000-0 13387-2 0 9990

TLE line 2: 2 30263 98.8969 246.2116 0145446 253.1990 260.8895 14.00298112929321

Live tracking on map

Real-time ground track for satellite FENGYUN 1C DEB.

In-orbit conjunctions

A list of the most updated potential collisions computed for object FENGYUN 1C DEB.

Target Orbit TCA Probability of collision Miss distance Type
CZ-6A DEB LEO 2025-02-22 17:19:34 0.0002050926 891.0 (m) DEBRIS
CZ-6A DEB LEO 2025-02-12 08:31:59 0.0001742533 912.0 (m) DEBRIS
COSMOS 1275 DEB LEO 2024-12-29 14:19:52 0.0001025839 174.0 (m) DEBRIS
SCOUT G-1 DEB SSO 2024-12-12 15:49:24 0.000175227 55.0 (m) DEBRIS
CZ-4 R/B SSO 2024-11-18 01:29:02 0.0003913901 107.0 (m) ROCKET BODY

Associated space launch

Chinese polar orbiting meteorological satellite

FENGYUN 1C DEB was lifted into orbit during the mission ‘Long March 4B | Feng Yun 1C’, on board a Long March 4B space rocket.

The launch took place on May 10, 1999, 1:33 a.m. from Launch Complex 7.

For more information about the launch, click the button.

Launch to space Long March 4B | Feng Yun 1C
Long March 4B | Feng Yun 1C

Agency: N/A

Status: Launch Successful

Launch date: May 10, 1999, 1:33 a.m. UTC

Rocket: Long March 4B

Launch pad: Launch Complex 7

Location: Taiyuan Satellite Launch Center, People's Republic of China

...

Latest news about this satellite

There are no fresh news available about this satellite. Check back as we update our databases every day.


Newsletter sign-up

Weekly statistics, charts and insights to help you stay on top of the space industry.